TimeEDT,TemperatureF,Dew PointF,Humidity,Sea Level PressureIn,VisibilityMPH,Wind Direction,Wind SpeedMPH,Gust SpeedMPH,PrecipitationIn,Events,Conditions,WindDirDegrees,DateUTC
12:15 AM,73.4,73.4,100,29.61,5.0,SW,6.9,-,N/A,,Overcast,220,2013-07-24 04:15:00
12:35 AM,73.4,71.6,94,29.61,4.0,WSW,5.8,-,N/A,,Overcast,250,2013-07-24 04:35:00
12:55 AM,73.4,71.6,94,29.61,8.0,WSW,8.1,-,N/A,,Overcast,250,2013-07-24 04:55:00
1:15 AM,73.4,71.6,94,29.61,9.0,WSW,5.8,-,N/A,,Overcast,250,2013-07-24 05:15:00
1:35 AM,71.6,71.6,100,29.61,9.0,West,5.8,-,N/A,,Scattered Clouds,260,2013-07-24 05:35:00
1:55 AM,71.6,71.6,100,29.60,10.0,West,4.6,-,N/A,,Scattered Clouds,280,2013-07-24 05:55:00
2:15 AM,71.6,69.8,94,29.60,10.0,SSW,4.6,-,N/A,,Partly Cloudy,200,2013-07-24 06:15:00
2:35 AM,71.6,69.8,94,29.60,10.0,Calm,Calm,-,N/A,,Mostly Cloudy,0,2013-07-24 06:35:00
2:55 AM,71.6,71.6,100,29.60,10.0,SW,3.5,-,N/A,,Overcast,220,2013-07-24 06:55:00
3:15 AM,71.6,71.6,100,29.61,10.0,SSW,3.5,-,N/A,,Overcast,210,2013-07-24 07:15:00
3:35 AM,71.6,71.6,100,29.60,10.0,Calm,Calm,-,N/A,Thunderstorm,Overcast,0,2013-07-24 07:35:00
3:55 AM,71.6,69.8,94,29.60,10.0,Calm,Calm,-,N/A,,Mostly Cloudy,0,2013-07-24 07:55:00
4:15 AM,71.6,69.8,94,29.60,10.0,SSW,3.5,-,N/A,,Partly Cloudy,210,2013-07-24 08:15:00
4:35 AM,71.6,69.8,94,29.60,10.0,Calm,Calm,-,N/A,,Scattered Clouds,0,2013-07-24 08:35:00
4:55 AM,71.6,69.8,94,29.60,10.0,Calm,Calm,-,N/A,,Scattered Clouds,0,2013-07-24 08:55:00
5:15 AM,71.6,69.8,94,29.61,10.0,WSW,5.8,-,N/A,,Overcast,240,2013-07-24 09:15:00
5:35 AM,71.6,69.8,94,29.61,10.0,SW,3.5,-,N/A,,Overcast,230,2013-07-24 09:35:00
5:55 AM,71.6,69.8,94,29.61,9.0,WSW,3.5,-,N/A,,Mostly Cloudy,250,2013-07-24 09:55:00
6:15 AM,71.6,69.8,94,29.62,8.0,Calm,Calm,-,N/A,,Mostly Cloudy,0,2013-07-24 10:15:00
6:35 AM,71.6,71.6,100,29.63,9.0,Calm,Calm,-,N/A,,Overcast,0,2013-07-24 10:35:00
6:55 AM,73.4,71.6,94,29.63,10.0,Calm,Calm,-,N/A,,Mostly Cloudy,0,2013-07-24 10:55:00
7:15 AM,75.2,71.6,89,29.62,10.0,West,4.6,-,N/A,,Partly Cloudy,270,2013-07-24 11:15:00
7:35 AM,75.2,71.6,89,29.63,10.0,West,5.8,-,N/A,,Clear,270,2013-07-24 11:35:00
7:55 AM,77.0,71.6,83,29.64,10.0,West,5.8,-,N/A,,Clear,260,2013-07-24 11:55:00
8:15 AM,77.0,71.6,83,29.65,10.0,WSW,5.8,-,N/A,,Clear,250,2013-07-24 12:15:00
8:35 AM,77.0,71.6,83,29.65,10.0,WSW,4.6,-,N/A,,Scattered Clouds,250,2013-07-24 12:35:00
8:55 AM,78.8,71.6,78,29.65,10.0,WNW,3.5,-,N/A,,Clear,290,2013-07-24 12:55:00
9:15 AM,80.6,71.6,74,29.66,10.0,West,3.5,-,N/A,,Clear,270,2013-07-24 13:15:00
9:35 AM,80.6,71.6,74,29.66,10.0,NW,3.5,-,N/A,,Clear,310,2013-07-24 13:35:00
9:55 AM,80.6,71.6,74,29.66,10.0,SW,6.9,-,N/A,,Scattered Clouds,230,2013-07-24 13:55:00
10:15 AM,82.4,71.6,70,29.67,10.0,SW,3.5,-,N/A,,Scattered Clouds,230,2013-07-24 14:15:00
10:35 AM,80.6,71.6,74,29.68,10.0,West,10.4,-,N/A,,Partly Cloudy,260,2013-07-24 14:35:00
10:55 AM,82.4,71.6,70,29.68,10.0,WSW,9.2,-,N/A,,Clear,240,2013-07-24 14:55:00
11:15 AM,84.2,69.8,62,29.69,10.0,SW,5.8,-,N/A,,Clear,230,2013-07-24 15:15:00
11:35 AM,84.2,71.6,66,29.70,10.0,WSW,6.9,-,N/A,,Clear,240,2013-07-24 15:35:00
11:55 AM,84.2,71.6,66,29.70,10.0,SW,11.5,-,N/A,,Scattered Clouds,230,2013-07-24 15:55:00
12:15 PM,84.2,71.6,66,29.70,10.0,SSW,5.8,-,N/A,,Scattered Clouds,210,2013-07-24 16:15:00
12:35 PM,84.2,69.8,62,29.70,10.0,WSW,8.1,-,N/A,,Clear,240,2013-07-24 16:35:00
12:55 PM,84.2,71.6,66,29.70,10.0,SW,10.4,-,N/A,,Clear,230,2013-07-24 16:55:00
1:15 PM,84.2,69.8,62,29.70,10.0,WSW,10.4,-,N/A,,Clear,240,2013-07-24 17:15:00
1:35 PM,84.2,71.6,66,29.71,10.0,WSW,10.4,-,N/A,,Clear,250,2013-07-24 17:35:00
1:55 PM,86.0,71.6,62,29.70,10.0,SW,10.4,-,N/A,,Clear,220,2013-07-24 17:55:00
2:15 PM,86.0,68.0,55,29.71,10.0,WSW,10.4,-,N/A,,Clear,240,2013-07-24 18:15:00
2:35 PM,86.0,69.8,58,29.71,10.0,WSW,11.5,-,N/A,,Clear,250,2013-07-24 18:35:00
2:55 PM,86.0,69.8,58,29.71,10.0,WSW,12.7,17.3,N/A,,Clear,240,2013-07-24 18:55:00
3:15 PM,86.0,69.8,58,29.72,10.0,WSW,17.3,20.7,N/A,,Clear,250,2013-07-24 19:15:00
3:35 PM,84.2,69.8,62,29.72,10.0,West,15.0,-,N/A,,Clear,260,2013-07-24 19:35:00
3:55 PM,84.2,68.0,58,29.73,10.0,SW,16.1,20.7,N/A,,Clear,230,2013-07-24 19:55:00
4:15 PM,84.2,66.2,55,29.73,10.0,West,15.0,-,N/A,,Clear,260,2013-07-24 20:15:00
4:35 PM,82.4,66.2,58,29.73,10.0,SW,15.0,-,N/A,,Clear,230,2013-07-24 20:35:00
4:55 PM,82.4,66.2,58,29.74,10.0,WSW,16.1,-,N/A,,Mostly Cloudy,250,2013-07-24 20:55:00
5:15 PM,80.6,69.8,70,29.75,10.0,WSW,13.8,-,N/A,,Overcast,250,2013-07-24 21:15:00
5:35 PM,80.6,71.6,74,29.75,10.0,WSW,9.2,-,N/A,,Overcast,250,2013-07-24 21:35:00
5:55 PM,80.6,71.6,74,29.75,10.0,WSW,9.2,-,N/A,,Mostly Cloudy,250,2013-07-24 21:55:00
6:15 PM,80.6,71.6,74,29.76,10.0,WSW,6.9,-,N/A,,Scattered Clouds,250,2013-07-24 22:15:00
6:35 PM,80.6,71.6,74,29.76,10.0,WSW,9.2,-,N/A,,Mostly Cloudy,250,2013-07-24 22:35:00
6:55 PM,80.6,69.8,70,29.78,10.0,West,6.9,-,N/A,,Mostly Cloudy,270,2013-07-24 22:55:00
7:15 PM,78.8,71.6,78,29.80,10.0,NW,3.5,-,N/A,,Overcast,320,2013-07-24 23:15:00
7:35 PM,77.0,68.0,74,29.81,10.0,NNE,8.1,-,N/A,,Overcast,30,2013-07-24 23:35:00
7:55 PM,75.2,68.0,78,29.82,10.0,NNE,3.5,-,N/A,,Mostly Cloudy,30,2013-07-24 23:55:00
8:15 PM,73.4,68.0,83,29.83,10.0,NNE,4.6,-,N/A,,Overcast,30,2013-07-25 00:15:00
8:35 PM,73.4,68.0,83,29.84,10.0,NE,8.1,-,N/A,,Overcast,40,2013-07-25 00:35:00
8:55 PM,73.4,68.0,83,29.85,10.0,NE,8.1,-,N/A,,Overcast,50,2013-07-25 00:55:00
9:15 PM,71.6,68.0,88,29.86,10.0,NE,9.2,-,N/A,,Mostly Cloudy,40,2013-07-25 01:15:00
9:35 PM,71.6,68.0,88,29.86,10.0,NE,10.4,-,N/A,,Mostly Cloudy,50,2013-07-25 01:35:00
9:55 PM,71.6,68.0,88,29.87,10.0,NE,9.2,-,N/A,,Scattered Clouds,50,2013-07-25 01:55:00
10:15 PM,71.6,66.2,83,29.88,10.0,NNE,6.9,-,N/A,,Partly Cloudy,30,2013-07-25 02:15:00
10:35 PM,71.6,66.2,83,29.88,10.0,North,5.8,-,N/A,,Scattered Clouds,10,2013-07-25 02:35:00
10:55 PM,69.8,66.2,88,29.89,10.0,NNE,6.9,-,N/A,,Mostly Cloudy,20,2013-07-25 02:55:00
11:15 PM,69.8,64.4,83,29.90,10.0,NNE,6.9,-,N/A,,Overcast,30,2013-07-25 03:15:00
11:35 PM,69.8,64.4,83,29.91,10.0,NNE,8.1,-,N/A,,Overcast,20,2013-07-25 03:35:00
11:55 PM,69.8,64.4,83,29.91,10.0,North,9.2,-,N/A,,Overcast,10,2013-07-25 03:55:00